Showing default

GONETS M 14 (M24), 44905

Orbit data source: Space-Track

GONETS M 14 (M24), 44905 is a payload satellite owned by Gonets (CIS) in LEO that was launched on Thu, 26 Dec 2019 UTC via an ROKOT launch vehicle from the Plesetsk Missile And Space Complex (PKMTR). Payload-class satellites include a variety of spacecraft equipped with specific instruments for various scientific and technological missions. These include communications satellites like Starlink; space stations such as the ISS; scientific satellites like the Hubble; Earth observation satellites from companies like Planet Labs, Umbra, and HawkEye 360; GPS; miniature CubeSats for education and research; and military/defense satellites.

Loading next visibility...
Identifier
44905, 2019-096A
Orbit
LEO
Country
Flag of CISCIS
Related business
Manufacturer
Resehetnev ISS
Mission
Operational Commercial Communications
Bus & Motor
STRELA-3M, Unknown motor
Mass
225 kg wet, 225 kg dry
Launch date (UTC)
2019-12-26 (6 years ago)
Launch vehicle
ROKOT
Launch site
Plesetsk Missile And Space Complex (PKMTR)
Object type
Payload
Rocket body
Debris
Shape & HBR
Cyl + 1 Ant, 3.5 m
Radar Cross Section
1.798 m², Large (>1 m²)

Expand to show TLE details & history
Last TLE update: 21 hours ago

TLE from 21 hours ago
0 GONETS M 14 (M24)
1 44905U 19096A   26172.55609257  .00000064  00000-0  39020-3 0  9991
2 44905  82.5233  81.9322 0013739 138.7382 221.4738 12.42870282294229
Epoch: 2026-06-21T13:20Z
TLE epoch observation values (Epoch: 2026-06-21T13:20:46.398Z)
Latitude
-0.00005°
Longitude
-28.0158°
Altitude
1,505.271 km
Speed
7.108 km/s
True Right ascension
05h 27m 43s
True Declination
0° 00' 00"
Sunlit
Object was in daylight at epoch
Visualization orbit readout
Latitude
Unknown
Longitude
Unknown
Altitude
Unknown
Speed
Unknown
Apparent Right ascension
Unknown
Apparent Declination
Unknown
Sunlit
N/A
Visualization observer readout
Local Sidereal Time
21:35:17
Azimuth
Unknown
Elevation
Unknown
Doppler factor
Unknown
Orbital elements
Apogee altitude
1,502.622 km
Perigee altitude
1,480.997 km
Semi-major axis
7,869.947 km
Eccentricity
0.00137
Inclination
82.5233°
RAAN
81.9322°
Arg. of periapsis
138.7382°
True anomaly
221.36967°
Mean anomaly
221.4738°
Eccentric anomaly
221.42172°
Mean motion
3.10875 °/min
Orbital period
115.8 mins
BSTAR
0.0003902
Loading maneuver chart data...
Computing Atmospheric mass density...
Loading historical data...
Loading historical data...
Loading historical data...
Loading historical data...
Loading historical data...
Loading historical data...
Loading historical data...
Other satellites on launch #96 in the year 2019 (2019-12-26 UTC)

Documentation

Showing up to 5 results
|